Showing default

JILIN-01 GAOFEN 3D 32, 52449

Orbit data source: Space-Track

JILIN-01 GAOFEN 3D 32, 52449 is a payload satellite owned by Changguang WJ (CN) in SSO that was launched on Thu, 05 May 2022 UTC via a CHANG ZHENG 2D launch vehicle from the Taiyaun Space Center, China (TSC). Payload-class satellites include a variety of spacecraft equipped with specific instruments for various scientific and technological missions. These include communications satellites like Starlink; space stations such as the ISS; scientific satellites like the Hubble; Earth observation satellites from companies like Planet Labs, Umbra, and HawkEye 360; GPS; miniature CubeSats for education and research; and military/defense satellites.

Loading next visibility...
Identifier
52449, 2022-048G
Orbit
SSO
Last TLE update
6 hours ago
Origin
Manufacturer
Changguang WJ
Mission
Operational Commercial Imaging
Bus & Motor
JL-1, Unknown motor
Mass
42 kg wet, 42 kg dry
Launch date (UTC)
2022-05-05 (3 years ago)
Launch vehicle
CHANG ZHENG 2D
Launch site
Taiyaun Space Center, China (TSC)
Object type
Payload
Rocket body
Debris
Shape & HBR
Box + 2 Pan, 1.5 m
Radar Cross Section
2.000 m², Medium (>0.1 m² and < 1m²)

Expand to show TLE details & history

TLE from 6 hours ago
0 JILIN-01 GAOFEN 3D 32
1 52449U 22048G   25186.21432545  .00093967  00000-0  84410-3 0  9992
2 52449  97.5763 288.3688 0005986 160.7665 199.3822 15.67945337176407
Epoch: 2025-07-05T05:08Z
TLE epoch observation values (Epoch: 2025-07-05T05:08:37.718Z)
Latitude
-0.00011°
Longitude
-72.24393°
Altitude
371.74 km
Speed
7.684 km/s
True Right ascension
19h 13m 28s
True Declination
0° 00' 00"
Sunlit
Object was in full shadow at epoch
Visualization orbit readout
Latitude
-66.5888°
Longitude
90.22297°
Altitude
389.738 km
Speed
7.675 km/s
Apparent Right ascension
09h 08m 07s
Apparent Declination
-58° 11' 44"
Sunlit
Object is in daylight
Visualization observer readout
Local Sidereal Time
22:41:45
Azimuth
148.488° SSE
Elevation
-66.388°
Doppler factor
1
Orbital elements
Apogee altitude
365.725 km
Perigee altitude
357.657 km
Semi-major axis
6,739.828 km
Eccentricity
0.0006
Inclination
97.5763°
RAAN
288.3688°
Arg. of periapsis
160.7665°
True anomaly
Unknown
Mean anomaly
199.3822°
Eccentric anomaly
Unknown
Mean motion
3.92256 °/min
Orbital period
91.78 mins
BSTAR
0.0008441
Loading maneuver chart data...
Loading SW <> Apogee altitude chart data...
Loading historical data...
Loading historical data...
Loading historical data...
Loading historical data...
Loading historical data...
Loading historical data...
Loading historical data...

JILIN-01 GAOFEN 3D 32 Visibility forecast

Observer location: undefined°, undefined°

Span
Click to sort rows by Start time (UTC) header in descending order
Start Az.
Max El. time (UTC)
Max El. Az.
Max El.
End time (UTC)
End Az.
4 mins2025-07-05 19:29:28.580Z29.03° NE2025-07-05 19:31:28.580Z101.155° ESE36.545°2025-07-05 19:33:28.580Z171.829° S
|